Wahoo, NE

1:51 AM CST on February 22, 2017 (GMT -0600)
Wahoo Municipal

Weather History for KAHQ - April, 2014

Change the Weather History Date:

Sunday, April 27, 2014

  Actual Average Record
Temperature  
Mean Temperature 64 °F -  
Max Temperature 69 °F 68 °F 95 °F (1989)
Min Temperature 59 °F 44 °F 28 °F (1992)
Degree Days  
Heating Degree Days 1    
Growing Degree Days 14 (Base 50)    
Moisture  
Dew Point 55 °F    
Average Humidity 73    
Maximum Humidity 89    
Minimum Humidity 58    
Precipitation  
Precipitation 0.45 in - - ()
Sea Level Pressure  
Sea Level Pressure 29.34 in    
Wind  
Wind Speed 20 mph (ESE)    
Max Wind Speed 30 mph    
Max Gust Speed 37 mph    
Visibility 10 miles    
Events Rain    
Averages and records for this station are not official NWS values.
T = Trace of Precipitation, MM = Missing Value Source: NWS Daily Summary

Daily Weather History Graph

Daily Weather History Graph

Search for Another Location

Airport or City:

Trip Planner

Search our weather history database for the weather conditions in past years. The results will help you decide how hot, cold, wet, or windy it might be!

Date:

Astronomy

Apr. 27, 2014 Rise Set
Actual Time 6:29 AM CDT 8:19 PM CDT
Civil Twilight 5:59 AM CDT 8:49 PM CDT
Nautical Twilight 5:23 AM CDT 9:25 PM CDT
Astronomical Twilight 4:44 AM CDT 10:04 PM CDT
Moon 5:31 AM CDT (4/27) 6:53 PM CDT (4/27)
Length of Visible Light 14h 49m
Length of Day
13h 50m
Waning Crescent, 3% of the Moon is Illuminated
Apr 27
Waning Crescent
Apr 29
New
May 6
First Quarter
May 14
Full
May 21
Last Quarter

Hourly Weather History & Observations

Time (CDT) Temp. Dew Point Humidity Pressure Visibility Wind Dir Wind Speed Gust Speed Precip Events Conditions
12:15 AM 64.9 °F 50.0 °F 58% 29.47 in 10.0 mi ESE 21.9 mph 27.6 mph N/A   Clear
12:35 AM 64.8 °F 49.6 °F 58% 29.47 in 10.0 mi ESE 23.0 mph 28.8 mph N/A   Clear
1:15 AM 64.6 °F 50.0 °F 59% 29.46 in 10.0 mi SE 20.7 mph 25.3 mph N/A   Clear
1:35 AM 64.9 °F 50.0 °F 58% 29.45 in 10.0 mi ESE 17.3 mph 26.5 mph N/A   Clear
1:55 AM 64.6 °F 50.0 °F 59% 29.45 in 10.0 mi ESE 20.7 mph - N/A   Clear
2:15 AM 64.6 °F 50.0 °F 59% 29.44 in 10.0 mi SE 17.3 mph - N/A   Clear
2:35 AM 64.4 °F 50.0 °F 59% 29.43 in 10.0 mi SE 18.4 mph 23.0 mph N/A   Clear
2:55 AM 64.4 °F 50.4 °F 60% 29.42 in 10.0 mi SE 16.1 mph - N/A   Clear
3:15 AM 63.7 °F 50.5 °F 62% 29.41 in 10.0 mi SE 16.1 mph - N/A   Clear
3:35 AM 63.9 °F 50.9 °F 63% 29.41 in 10.0 mi ESE 17.3 mph - N/A   Clear
3:55 AM 63.1 °F 50.5 °F 63% 29.41 in 10.0 mi ESE 16.1 mph 20.7 mph N/A   Clear
4:15 AM 63.0 °F 50.2 °F 63% 29.41 in 10.0 mi ESE 16.1 mph - N/A   Clear
4:35 AM 62.6 °F 50.4 °F 64% 29.40 in 10.0 mi ESE 17.3 mph - N/A   Clear
4:55 AM 62.8 °F 50.7 °F 65% 29.40 in 10.0 mi ESE 16.1 mph - N/A   Clear
5:15 AM 63.5 °F 50.9 °F 63% 29.39 in 10.0 mi ESE 17.3 mph - N/A   Mostly Cloudy
5:35 AM 64.0 °F 51.3 °F 63% 29.39 in 10.0 mi ESE 19.6 mph 23.0 mph N/A   Overcast
5:55 AM 64.2 °F 51.3 °F 63% 29.39 in 10.0 mi ESE 19.6 mph - N/A   Overcast
6:15 AM 64.6 °F 51.8 °F 63% 29.39 in 10.0 mi ESE 23.0 mph 27.6 mph N/A   Overcast
6:35 AM 64.4 °F 52.2 °F 64% 29.40 in 10.0 mi SE 18.4 mph 25.3 mph N/A   Overcast
6:55 AM 64.6 °F 52.9 °F 66% 29.39 in 10.0 mi SE 20.7 mph 24.2 mph N/A   Overcast
7:15 AM 65.3 °F 54.0 °F 67% 29.39 in 10.0 mi SE 18.4 mph 25.3 mph N/A   Overcast
7:35 AM 63.1 °F 56.3 °F 78% 29.41 in 7.0 mi ESE 11.5 mph 16.1 mph 0.01 in Rain Rain
7:55 AM 62.8 °F 55.8 °F 78% 29.40 in 10.0 mi ESE 18.4 mph 23.0 mph 0.01 in Rain Light Rain
8:15 AM 62.1 °F 57.0 °F 84% 29.38 in 7.0 mi SE 29.9 mph 35.7 mph 0.01 in Rain Light Rain
8:35 AM 62.2 °F 58.1 °F 86% 29.40 in 7.0 mi ESE 26.5 mph 32.2 mph 0.02 in Rain Light Rain
8:55 AM 62.1 °F 58.1 °F 87% 29.41 in 7.0 mi ESE 24.2 mph 29.9 mph 0.04 in Rain Light Rain
9:15 AM 61.7 °F 57.2 °F 85% 29.39 in 7.0 mi SE 23.0 mph 29.9 mph 0.04 in Rain Light Rain
9:35 AM 61.0 °F 55.6 °F 82% 29.42 in 10.0 mi South 17.3 mph - 0.05 in Rain Rain
9:55 AM 61.0 °F 54.7 °F 80% 29.43 in 7.0 mi SSE 19.6 mph 25.3 mph 0.09 in Rain Light Rain
10:15 AM 60.3 °F 55.4 °F 84% 29.44 in 7.0 mi SSE 21.9 mph - 0.04 in Rain Light Rain
10:35 AM 60.1 °F 56.3 °F 87% 29.44 in 5.0 mi SSE 17.3 mph - 0.10 in Rain Rain
10:55 AM 59.5 °F 56.1 °F 88% 29.42 in 5.0 mi SSE 13.8 mph - 0.18 in Rain Rain
11:15 AM 59.2 °F 55.9 °F 89% 29.37 in 5.0 mi ENE 11.5 mph - 0.07 in Rain Rain
11:35 AM 59.4 °F 55.9 °F 88% 29.37 in 10.0 mi East 10.4 mph - 0.09 in Rain Light Rain
11:55 AM 59.9 °F 55.2 °F 84% 29.37 in 10.0 mi ESE 16.1 mph - 0.09 in Rain Light Rain
12:35 PM 60.4 °F 56.3 °F 86% 29.41 in 10.0 mi SE 18.4 mph 26.5 mph 0.02 in Rain Light Rain
12:55 PM 60.4 °F 56.8 °F 88% 29.33 in 10.0 mi East 18.4 mph - 0.03 in Rain Light Rain
1:15 PM 61.0 °F 56.5 °F 85% 29.27 in 10.0 mi East 16.1 mph 28.8 mph N/A Rain Light Rain
1:35 PM 63.7 °F 57.4 °F 80% 29.28 in 10.0 mi ESE 20.7 mph 25.3 mph N/A   Clear
1:55 PM 65.3 °F 58.1 °F 77% 29.27 in 10.0 mi ESE 20.7 mph 26.5 mph 0.01 in   Clear
2:15 PM 65.3 °F 57.2 °F 75% 29.26 in 10.0 mi ESE 21.9 mph 29.9 mph N/A   Clear
2:35 PM 65.3 °F 57.4 °F 76% 29.26 in 10.0 mi ESE 25.3 mph 28.8 mph N/A   Clear
2:55 PM 65.5 °F 56.8 °F 74% 29.25 in 10.0 mi ESE 25.3 mph 31.1 mph N/A   Clear
3:15 PM 66.4 °F 57.0 °F 72% 29.25 in 10.0 mi ESE 21.9 mph 29.9 mph N/A   Clear
3:35 PM 66.9 °F 56.8 °F 70% 29.25 in 10.0 mi ESE 23.0 mph 27.6 mph N/A   Clear
3:55 PM 67.5 °F 55.8 °F 66% 29.24 in 10.0 mi SE 25.3 mph 34.5 mph N/A   Clear
4:15 PM 68.5 °F 55.9 °F 64% 29.24 in 10.0 mi SE 25.3 mph 29.9 mph N/A   Clear
4:30 PM 68.9 °F 54.7 °F 60% 29.24 in 10.0 mi SE 28.8 mph 34.5 mph N/A   Clear
5:15 PM 69.4 °F 55.8 °F 62% 29.24 in 10.0 mi SSE 26.5 mph 35.7 mph N/A   Scattered Clouds
5:35 PM 69.3 °F 55.2 °F 61% 29.24 in 10.0 mi SSE 26.5 mph 34.5 mph N/A   Scattered Clouds
5:55 PM 69.3 °F 56.3 °F 63% 29.25 in 10.0 mi SSE 23.0 mph 32.2 mph N/A   Scattered Clouds
6:15 PM 68.0 °F 55.6 °F 64% 29.26 in 10.0 mi SE 24.2 mph 34.5 mph N/A   Scattered Clouds
6:35 PM 68.0 °F 56.3 °F 66% 29.25 in 10.0 mi SE 21.9 mph 34.5 mph N/A   Clear
6:55 PM 67.6 °F 56.3 °F 67% 29.25 in 10.0 mi SE 23.0 mph 32.2 mph N/A   Clear
7:15 PM 66.4 °F 55.8 °F 69% 29.25 in 10.0 mi SE 24.2 mph 34.5 mph N/A   Clear
7:35 PM 65.3 °F 55.9 °F 72% 29.26 in 10.0 mi ESE 21.9 mph 28.8 mph N/A   Clear
7:55 PM 64.6 °F 55.8 °F 73% 29.26 in 10.0 mi ESE 21.9 mph 29.9 mph N/A   Clear
8:15 PM 63.5 °F 55.8 °F 76% 29.26 in 10.0 mi ESE 18.4 mph - N/A   Clear
8:35 PM 63.0 °F 55.9 °F 78% 29.27 in 10.0 mi ESE 23.0 mph 27.6 mph N/A   Clear
8:55 PM 62.2 °F 56.3 °F 81% 29.27 in 10.0 mi ESE 18.4 mph 25.3 mph N/A   Scattered Clouds
9:15 PM 62.6 °F 56.8 °F 81% 29.26 in 10.0 mi ESE 28.8 mph 36.8 mph N/A   Overcast
9:35 PM 62.6 °F 57.4 °F 83% 29.26 in 10.0 mi ESE 26.5 mph 33.4 mph N/A   Overcast
9:55 PM 63.0 °F 57.6 °F 82% 29.26 in 10.0 mi ESE 27.6 mph 34.5 mph N/A   Overcast
10:15 PM 62.6 °F 57.4 °F 83% 29.25 in 10.0 mi ESE 25.3 mph 33.4 mph N/A   Overcast
10:35 PM 61.9 °F 57.2 °F 85% 29.24 in 10.0 mi ESE 21.9 mph 32.2 mph N/A   Overcast
10:55 PM 61.7 °F 57.2 °F 85% 29.24 in 10.0 mi ESE 28.8 mph 33.4 mph N/A   Scattered Clouds
11:15 PM 61.7 °F 57.0 °F 85% 29.24 in 10.0 mi ESE 25.3 mph 34.5 mph N/A   Scattered Clouds
11:35 PM 61.7 °F 56.7 °F 84% 29.24 in 10.0 mi ESE 27.6 mph 33.4 mph N/A   Clear
11:55 PM 61.3 °F 56.5 °F 84% 29.24 in 10.0 mi SE 23.0 mph 31.1 mph N/A   Clear